EW5806 Weather Reports


Display with metric or nautical units.
time (UTC)temp
F
wind
direction
speed
MPH
gust
MPH
rain 1hr
in
rain 24hr
in
rain mn
in
humidity
%
barometer
mb
20260504050615 62 225 2.0 2.0 0.00 0.00 0.00 90 1011.1
20260504045553 63 113 0.0 0.0 0.00 0.00 0.00 90 1010.9
20260504044614 63 135 2.0 2.0 0.00 0.00 0.00 90 1010.9
20260504042614 64 113 0.0 0.0 0.00 0.00 0.00 89 1010.8
20260504041552 64 135 0.0 0.0 0.00 0.00 0.00 89 1010.9
20260504040613 64 135 0.0 0.0 0.00 0.00 0.00 89 1011.0
20260504035553 65 113 0.0 0.0 0.00 0.00 0.00 89 1011.1
20260504034613 65 135 0.0 0.0 0.00 0.00 0.00 88 1011.2
20260504033556 65 135 0.0 0.0 0.00 0.00 0.00 88 1011.1
20260504032613 65 113 0.0 0.0 0.00 0.00 0.00 88 1011.1
20260504031554 65 135 0.0 0.0 0.00 0.00 0.00 88 1011.2
20260504025553 66 90 2.0 2.0 0.00 0.00 0.00 89 1011.3
20260504024613 66 113 1.0 2.0 0.00 0.00 0.00 89 1011.3
20260504023552 66 113 0.0 0.0 0.00 0.00 0.00 88 1011.4
20260504022613 66 90 0.0 0.0 0.00 0.00 0.00 88 1011.4
20260504020613 66 315 0.0 0.0 0.00 0.00 0.00 88 1011.5
20260504015553 66 293 0.0 0.0 0.00 0.00 0.00 88 1011.6
20260504014613 67 315 0.0 0.0 0.00 0.00 0.00 88 1011.5
20260504012613 66 293 0.0 0.0 0.00 0.00 0.00 88 1011.5
20260504011553 66 293 0.0 0.0 0.00 0.00 0.00 88 1011.7
20260504005552 67 293 1.0 2.0 0.00 0.00 0.00 88 1011.8
20260504004614 67 315 2.0 2.0 0.00 0.00 0.00 88 1011.9
20260504003553 67 293 2.0 2.0 0.00 0.00 0.00 88 1012.0
20260504001552 67 315 0.0 0.0 0.00 0.00 0.00 88 1012.0
20260504000616 67 338 1.0 2.0 0.00 0.00 0.00 87 1012.0
20260503235555 67 270 0.0 0.0 0.00 0.00 0.00 87 1012.0
20260503234615 67 315 2.0 2.0 0.00 0.00 0.00 87 1012.2
20260503233553 67 270 2.0 2.0 0.00 0.00 0.00 87 1012.2
20260503232614 67 293 0.0 2.0 0.00 0.00 0.00 87 1012.2
20260503231553 66 315 1.0 2.0 0.00 0.00 0.00 87 1012.2
20260503230614 66 293 1.0 2.0 0.00 0.00 0.00 88 1012.2
20260503225552 67 203 0.0 0.0 0.00 0.00 0.00 88 1012.2
20260503224613 66 203 2.0 4.0 0.00 0.00 0.00 87 1012.1
20260503223553 66 293 2.0 4.0 0.00 0.00 0.00 88 1012.1
20260503222614 66 248 2.0 2.0 0.00 0.00 0.00 88 1012.0
20260503221553 65 248 2.0 5.0 0.00 0.00 0.00 88 1012.2
20260503220614 65 248 2.0 4.0 0.00 0.00 0.00 88 1012.1
20260503215552 66 225 2.0 2.0 0.00 0.00 0.00 88 1012.2
20260503214614 66 225 2.0 4.0 0.00 0.00 0.00 87 1012.2
20260503213552 66 315 0.0 0.0 0.00 0.00 0.00 87 1012.1
20260503212614 66 0 0.0 0.0 0.00 0.00 0.00 87 1012.2
20260503210613 67 113 2.0 2.0 0.00 0.00 0.00 87 1012.1
20260503205553 67 68 1.0 2.0 0.00 0.00 0.00 87 1012.0
20260503204613 67 135 0.0 2.0 0.00 0.00 0.00 86 1011.9
20260503203553 67 135 2.0 4.0 0.00 0.00 0.00 86 1011.7
20260503202613 67 45 1.0 2.0 0.00 0.00 0.00 86 1011.6
20260503201553 66 248 2.0 2.0 0.00 0.00 0.00 86 1011.5
20260503200615 66 225 2.0 4.0 0.00 0.00 0.00 87 1011.2
20260503195552 66 225 0.0 2.0 0.00 0.00 0.00 87 1011.0
20260503194613 66 293 3.0 6.0 0.00 0.00 0.00 87 1010.9
20260503193552 66 68 4.0 6.0 0.00 0.00 0.00 87 1010.7
20260503192613 66 270 3.0 6.0 0.00 0.00 0.00 87 1010.5
20260503191553 66 225 5.0 9.0 0.00 0.00 0.00 88 1010.5
20260503190614 66 225 5.0 8.0 0.00 0.00 0.00 88 1010.4
20260503185552 66 248 6.0 9.0 0.00 0.00 0.00 87 1010.2
20260503184613 67 270 6.0 11.0 0.00 0.00 0.00 87 1010.1
20260503182613 67 225 5.0 8.0 0.00 0.00 0.00 86 1010.0
20260503181552 68 248 6.0 11.0 0.00 0.00 0.00 85 1009.9
20260503175552 69 315 3.0 6.0 0.00 0.00 0.00 84 1009.8
20260503174616 68 0 5.0 14.0 0.00 0.00 0.00 84 1009.7
20260503173554 69 68 4.0 7.0 0.00 0.00 0.00 84 1009.7
20260503172614 69 338 5.0 9.0 0.00 0.00 0.00 81 1009.7
20260503171552 70 338 5.0 8.0 0.00 0.00 0.00 80 1009.8
20260503170614 70 180 5.0 8.0 0.00 0.00 0.00 81 1009.9
20260503150613 69 315 7.0 11.0 0.00 0.00 0.00 82 1011.0
20260503130614 71 338 5.0 7.0 0.00 0.00 0.00 74 1012.3
20260503110614 71 248 2.0 2.0 0.00 0.00 0.00 72 1013.9
20260503081552 65 315 2.0 4.0 0.00 0.00 0.00 89 1014.9
20260503072614 66 293 4.0 6.0 0.00 0.00 0.00 84 1015.0
20260503071554 67 293 3.0 5.0 0.00 0.00 0.00 82 1014.7
20260503070615 65 203 1.0 2.0 0.00 0.00 0.00 80 1014.7
20260503054614 64 248 1.0 2.0 0.00 0.00 0.00 81 1014.0
20260503053552 64 113 1.0 2.0 0.00 0.00 0.00 81 1014.3
20260503052614 64 113 0.0 2.0 0.00 0.00 0.00 81 1014.1
20260503051552 64 203 2.0 2.0 0.00 0.00 0.00 81 1014.0